Location: El Álamo
(40.2307°N, 3.9945°W)
Time: 03:17:38
(UTC+00:00)

Cosmos 1743 - Pass Details

Date: 19 May 2025
Orbit: 431 x 441 km, 82.5° (Epoch: 23 June)

Event Time Altitude Azimuth Distance (km) Brightness Sun altitude
Rises 20:18:10 0° 8° (N) 2,452 6.5 -8.8°
Reaches altitude 10° 20:20:38 10° 26° (NNE) 1,573 5.3 -9.2°
Maximum altitude 20:23:14 20° 75° (ENE) 1,092 4.0 -9.6°
Enters shadow 20:25:02 14° 114° (ESE) 1,340 4.2 -9.9°
